Theta_e
311 311 311 311 311 312 313 314 314 315 316 316 316 315 314 314 314 316 319 319 318 317 317 318 319 318 321 333 337 336 335 335 335 335 334 333 333 335 336 336 337 340 341 340 340 340 340 340 340 338 336 338 340 338 337 338 339 338 337 336 336 337 337 336 336 337 337 337 337 337 336 337 339 338 338 339 339 339 339 338 338 338 336 336 336 335
311 311 311 311 312 313 313 314 314 315 316 316 316 314 314 315 315 317 319 318 318 317 317 318 320 318 320 332 335 336 335 335 337 337 335 335 335 337 338 338 337 339 340 341 340 339 339 338 336 335 333 335 340 339 337 338 338 337 337 337 337 336 336 336 337 337 336 336 335 335 336 338 338 338 339 338 337 338 337 337 337 337 336 336 336 336
311 311 312 312 313 313 313 314 314 315 315 315 317 315 313 315 316 317 318 318 318 316 317 318 318 319 325 332 333 336 336 335 335 337 336 336 337 338 338 337 336 336 338 339 340 338 338 337 335 335 334 333 336 338 337 337 337 337 337 338 337 336 337 337 336 336 335 335 334 335 337 338 338 339 339 338 338 337 336 336 336 336 335 334 335 334
311 312 312 313 313 313 313 314 313 314 315 315 317 314 313 315 315 314 316 318 318 316 318 318 317 327 334 333 333 336 337 337 335 337 338 337 338 339 336 331 332 333 336 339 339 339 338 338 338 337 335 332 332 335 336 337 337 337 337 338 338 337 337 337 336 336 334 333 336 337 337 338 338 338 337 337 336 336 335 335 334 334 333 332 333 332
312 313 313 314 313 313 313 313 313 314 315 315 316 315 314 315 315 315 316 318 317 317 319 318 315 325 336 335 335 337 337 339 339 338 338 338 338 339 337 333 333 335 338 340 340 339 338 338 339 338 336 334 332 333 336 336 337 337 337 337 337 337 336 336 336 335 334 335 336 338 337 337 337 337 336 335 334 334 334 334 333 333 332 332 331 330
313 313 314 313 313 313 313 313 313 313 314 314 316 316 316 316 317 317 318 316 315 314 316 318 313 317 331 335 335 337 336 338 342 339 337 338 338 339 338 337 338 339 340 340 340 340 339 338 338 338 336 334 333 334 336 337 337 337 337 336 336 336 336 336 335 334 334 337 337 337 337 337 337 337 336 335 334 334 333 333 333 332 331 330 329 328
313 314 313 313 313 313 313 313 313 314 314 313 315 316 316 317 317 316 317 315 313 312 315 319 315 313 325 332 333 335 335 336 340 339 336 338 339 339 338 338 338 339 339 340 340 339 339 338 338 337 335 333 334 336 337 337 336 335 335 335 335 335 334 333 334 334 335 337 337 337 337 337 337 336 335 334 333 333 333 332 332 331 329 327 327 327
314 314 312 312 313 313 312 313 313 314 313 313 315 316 316 317 317 317 316 314 314 315 315 317 316 314 317 325 331 333 334 334 336 336 337 337 338 338 339 339 339 339 339 339 340 339 338 338 337 336 335 334 335 336 337 336 335 335 335 335 335 334 334 334 335 335 336 337 337 337 337 337 336 335 333 333 332 332 332 331 331 330 328 326 325 324
314 313 312 312 313 312 312 313 314 314 313 314 316 316 316 316 317 317 316 315 316 315 313 314 316 313 313 322 330 329 330 332 333 333 335 336 338 338 338 338 337 338 339 338 340 340 338 338 337 336 336 336 336 336 335 335 335 335 335 334 334 334 334 336 335 336 336 336 336 336 335 334 333 333 332 332 332 332 332 331 329 328 326 326 325 323
314 314 313 312 312 312 313 313 314 314 313 315 316 316 316 316 317 317 316 315 315 314 312 313 315 312 311 322 330 327 328 331 330 330 331 334 337 337 336 336 337 339 339 337 339 340 337 337 337 337 337 335 335 335 333 333 334 334 334 334 334 334 334 335 334 334 334 334 334 333 333 333 332 332 332 332 332 331 331 329 328 326 324 324 324 323
314 314 314 313 313 313 313 313 314 313 313 315 316 315 315 315 316 316 316 315 313 313 313 314 316 313 312 321 329 328 328 330 329 329 329 330 334 334 333 336 338 339 339 338 339 339 337 337 336 336 335 335 335 334 333 333 333 332 333 334 334 333 333 333 332 332 332 332 332 332 331 332 332 332 331 332 330 329 328 327 326 325 322 322 322 321
314 313 313 313 313 314 313 313 313 314 314 315 316 314 313 313 314 314 314 314 313 312 313 315 317 314 313 320 328 328 327 329 329 329 329 328 331 333 334 337 338 336 338 339 338 338 336 335 336 335 335 335 335 334 334 334 333 332 333 332 332 332 331 331 331 331 330 330 330 330 330 330 331 330 330 330 328 327 326 324 323 323 322 322 321 320
313 313 313 313 313 314 313 312 312 313 313 314 315 314 313 311 312 313 312 313 312 312 314 316 316 314 313 318 327 329 327 327 329 330 330 330 331 333 335 338 339 337 337 338 337 336 335 334 335 335 334 334 334 334 334 333 333 332 331 331 331 331 330 330 330 329 328 328 328 328 327 327 327 327 327 326 325 324 324 322 321 321 322 321 320 319
313 313 313 312 313 313 313 311 311 311 312 313 313 313 313 312 313 314 313 313 313 313 314 316 315 314 313 317 324 328 327 327 329 331 331 332 333 333 333 337 340 339 337 337 336 335 334 335 335 334 333 333 333 333 332 332 332 331 331 330 329 329 329 328 327 327 326 325 325 325 325 325 325 324 324 323 322 322 321 321 321 320 320 319 319 319
313 314 313 312 312 313 313 313 312 312 312 313 314 314 313 312 313 314 313 312 313 313 314 315 315 313 313 318 323 326 327 327 328 331 331 330 331 332 333 337 339 338 336 336 336 335 334 335 334 333 333 333 333 332 332 331 331 330 329 328 327 327 327 326 325 324 323 323 323 323 323 322 322 322 321 321 321 321 320 320 319 319 319 318 318 316
313 313 313 313 313 313 313 313 314 313 312 313 314 313 312 313 314 314 314 315 315 313 313 314 314 315 319 323 324 326 328 327 328 329 329 327 329 332 336 338 338 336 336 335 335 335 335 335 334 333 333 333 332 332 331 330 330 328 327 326 326 325 324 324 323 322 322 321 321 321 321 321 321 320 320 319 318 318 317 317 317 317 316 316 315 313
313 313 313 313 313 313 313 314 314 313 312 313 312 311 313 316 316 314 314 317 316 314 314 314 314 319 324 325 326 325 325 326 327 327 327 328 329 336 340 340 339 336 335 334 335 335 334 333 333 333 332 331 331 331 329 328 328 326 325 325 324 323 323 322 322 321 321 320 321 320 320 320 319 319 318 317 316 316 315 314 314 314 313 313 312 312
314 313 313 313 312 313 314 314 314 314 314 312 311 312 314 315 316 315 313 315 315 314 315 314 314 317 319 322 327 327 325 326 326 326 330 331 334 339 340 340 338 335 333 334 334 333 332 332 331 331 331 330 330 329 328 327 326 325 324 324 323 322 321 321 320 321 321 320 319 319 319 318 318 317 316 316 315 315 314 314 314 312 312 311 310 310
314 313 313 313 313 313 314 313 312 314 314 313 313 314 314 312 313 313 313 314 315 314 314 314 315 315 315 320 326 326 325 326 326 328 331 331 336 340 339 339 337 334 333 334 332 331 332 332 330 331 330 329 328 327 326 325 325 324 323 322 321 320 320 319 319 320 319 319 318 318 317 317 317 315 314 314 314 314 313 313 313 312 310 309 309 308
314 314 313 313 313 313 312 312 311 312 313 314 314 314 314 313 313 313 314 314 315 314 315 315 315 315 316 322 326 326 326 326 327 329 329 330 336 339 338 338 336 333 333 334 331 330 332 331 330 331 329 328 327 326 325 324 323 322 321 321 320 319 319 319 319 319 318 318 317 316 315 315 315 314 314 313 313 312 311 311 311 310 308 308 307 307
314 315 314 312 313 312 312 312 312 312 312 312 313 312 313 314 314 314 314 314 314 314 314 315 315 315 318 325 327 326 326 326 327 329 330 332 336 338 338 337 334 332 333 333 331 331 331 330 330 330 328 326 325 324 324 323 322 321 320 320 319 318 318 317 317 317 317 316 316 315 314 314 314 313 313 313 311 310 309 309 308 307 307 306 305 305
313 314 314 313 312 311 312 313 313 313 313 312 313 312 313 313 313 313 313 314 314 313 314 315 314 314 319 326 328 326 326 326 326 328 330 332 336 337 337 335 333 333 332 331 331 331 330 330 330 328 326 324 323 323 322 321 321 320 319 319 318 317 317 316 315 315 315 315 314 313 313 313 313 313 312 311 309 308 307 307 306 305 305 304 304 303
314 314 314 313 312 312 313 314 314 314 314 314 313 313 314 314 313 313 313 314 314 313 314 313 313 316 322 326 327 326 326 327 326 329 330 330 335 336 336 333 333 332 331 330 330 330 330 329 329 327 324 323 322 322 321 320 320 319 319 318 317 316 316 315 314 314 314 314 313 313 313 312 312 312 311 309 306 306 305 305 305 304 303 302 302 302
314 314 313 312 312 312 313 313 313 314 314 313 313 314 315 314 314 314 315 315 314 312 313 313 313 319 326 327 328 328 327 325 326 328 329 332 335 335 334 332 332 332 330 330 330 329 329 328 327 325 324 323 322 321 321 320 319 319 318 317 316 315 315 314 314 313 313 313 312 312 312 311 312 311 309 306 305 305 304 303 303 302 302 301 300 300
313 313 313 312 312 313 313 313 312 313 314 313 313 314 315 315 315 316 315 315 314 313 313 312 314 320 327 329 330 329 325 325 327 328 330 335 335 333 332 332 332 331 330 330 329 328 328 327 325 324 323 323 321 321 320 320 319 318 317 316 315 314 314 314 313 313 312 312 312 311 311 311 311 309 306 304 304 303 302 302 301 301 300 300 299 299
312 314 313 312 313 313 313 313 313 312 313 314 314 314 314 314 315 315 314 314 313 314 314 313 316 324 329 329 329 328 326 327 329 331 334 335 333 331 331 331 331 330 330 330 329 327 326 325 324 323 323 322 321 320 319 319 318 317 315 315 314 313 313 313 312 312 311 311 311 310 310 310 308 304 303 303 303 302 301 301 300 300 300 300 299 298
312 314 314 313 312 313 313 313 313 313 313 313 313 313 313 314 315 315 314 313 313 315 314 314 321 328 329 328 329 330 330 330 330 334 336 333 331 330 330 330 330 330 329 329 328 326 325 325 324 322 321 321 320 319 318 317 317 315 314 314 313 313 312 312 311 311 311 310 310 310 310 308 305 303 302 302 301 301 300 299 299 298 300 300 300 300
312 312 314 314 313 313 313 313 314 313 313 313 313 314 314 314 315 315 314 314 315 314 314 316 323 326 326 327 329 330 330 329 330 334 335 331 330 330 330 330 329 329 328 327 326 325 325 324 323 322 320 320 318 317 317 317 316 314 313 313 312 312 311 311 310 310 310 310 309 309 307 305 303 303 302 301 300 300 299 299 298 297 298 298 299 301
312 312 313 314 314 313 313 313 313 314 313 314 314 315 315 314 315 315 315 316 316 315 315 317 321 323 324 326 327 329 331 332 332 334 332 330 329 329 329 329 328 327 326 326 325 325 324 323 322 321 320 318 317 316 316 316 315 314 313 312 312 311 311 310 310 309 309 309 308 306 304 303 302 302 301 300 300 299 298 298 297 297 298 298 299 300
313 312 313 314 314 314 314 313 313 314 313 313 314 314 315 315 315 315 315 317 318 317 317 318 319 320 322 325 327 328 330 332 333 332 330 328 328 328 328 328 328 327 326 325 325 324 323 322 321 319 318 317 316 316 316 316 315 314 313 312 312 311 311 310 309 309 308 307 306 304 303 303 302 301 301 300 299 298 298 297 296 298 299 299 298 299
312 312 313 314 313 313 314 313 314 314 313 313 313 313 315 315 315 315 316 317 317 317 318 318 318 319 321 325 327 328 330 332 332 331 329 328 328 327 327 328 328 327 326 325 324 323 322 321 319 317 316 316 316 316 316 315 315 314 313 312 312 311 310 310 309 308 307 306 306 305 304 304 303 302 300 299 299 299 298 297 297 298 298 297 297 297
312 312 313 314 313 313 315 314 314 315 314 313 313 313 314 315 315 316 316 317 317 317 317 317 317 318 320 323 326 327 331 332 331 330 330 328 328 327 327 328 327 326 325 324 323 322 320 319 317 316 316 316 316 316 315 315 314 313 312 312 311 310 310 309 308 307 306 306 306 305 305 304 303 302 301 300 300 300 299 298 298 297 297 297 296 295
312 312 312 312 312 313 314 315 315 316 315 314 314 315 315 315 316 316 316 317 317 317 317 316 316 320 321 323 327 328 330 332 331 329 329 328 328 328 328 328 327 325 324 322 321 320 319 318 316 316 316 316 316 315 315 314 313 313 312 311 310 309 308 307 307 306 306 306 306 305 305 304 304 303 302 301 301 300 300 299 297 297 297 296 295 295
313 313 312 312 312 313 314 315 315 315 315 315 318 318 316 316 316 316 317 317 318 317 318 317 318 320 322 325 329 329 330 331 330 328 328 328 327 327 328 328 327 325 322 320 319 318 318 317 316 316 316 316 315 315 314 313 313 312 311 310 309 308 307 307 306 306 305 305 305 304 304 303 303 303 302 301 300 299 298 297 296 296 296 295 296 297
313 313 312 312 312 312 314 315 315 315 316 320 322 321 320 318 316 316 317 317 317 317 317 318 318 319 321 325 329 329 329 331 330 328 327 327 327 327 327 327 325 323 321 319 318 317 316 316 316 315 315 315 314 314 313 313 312 311 310 309 308 307 306 306 305 305 304 304 304 303 303 303 302 302 301 300 298 298 297 296 296 296 296 296 297 298
313 313 313 312 312 313 314 315 315 316 319 322 324 322 321 320 318 318 318 317 317 317 317 317 317 318 321 324 325 326 328 330 329 328 327 327 327 327 326 325 324 322 320 318 317 317 316 316 315 315 314 313 313 313 312 311 310 309 308 307 306 305 305 305 304 303 303 304 304 303 303 303 302 302 301 298 297 297 296 295 296 296 296 296 297 297
313 312 313 312 312 313 314 314 315 316 318 321 322 321 319 318 318 318 318 317 318 318 317 318 317 318 320 322 324 327 328 329 328 327 327 327 327 326 325 324 322 321 319 318 317 317 317 316 315 314 313 312 312 312 311 310 309 308 307 306 305 304 304 304 304 303 303 303 303 303 302 301 301 301 300 297 295 296 296 296 296 297 297 297 298 299
312 313 314 313 312 313 314 314 315 315 316 317 318 319 319 319 319 319 317 317 317 318 318 318 318 318 318 321 326 329 328 328 327 326 326 326 327 326 324 322 321 320 319 317 317 317 317 316 315 314 313 312 311 310 309 308 307 306 305 304 304 304 303 303 303 302 302 301 300 300 300 299 298 298 298 296 295 296 295 295 296 297 297 298 300 301
313 313 313 313 312 312 313 314 315 314 316 318 319 319 320 322 322 320 318 317 316 317 319 318 318 319 317 321 328 330 328 326 326 326 326 325 326 326 322 320 320 319 318 318 317 317 316 315 314 313 312 311 310 309 308 307 306 305 304 303 303 302 302 301 301 300 299 298 297 297 297 296 296 297 297 296 295 295 295 295 296 298 299 300 301 301
313 313 313 312 313 313 313 314 314 314 317 322 323 322 322 324 323 320 318 317 317 317 318 317 318 318 316 322 328 329 326 325 324 326 326 325 325 325 322 320 319 318 317 317 317 316 315 314 314 313 311 310 310 309 307 306 304 304 303 302 302 301 300 299 298 297 297 296 296 296 295 295 296 297 297 295 295 295 295 295 297 299 301 302 301 301
313 312 312 312 313 313 313 313 313 314 319 322 323 322 323 324 323 319 318 320 323 321 318 317 318 317 316 323 329 328 326 324 325 326 325 324 324 323 321 320 319 318 317 315 315 315 314 313 313 312 310 310 310 307 305 304 303 303 302 302 300 299 298 298 297 297 297 296 296 296 296 296 296 296 296 295 294 294 295 295 297 300 301 300 299 300
312 312 312 313 313 312 313 313 313 315 321 323 322 323 324 322 319 319 320 322 324 324 321 320 318 316 319 326 329 327 325 326 327 326 324 324 323 321 320 319 318 317 316 315 315 315 314 313 313 312 311 310 310 307 304 303 303 301 300 299 298 298 298 298 298 297 297 297 297 296 295 295 295 295 294 294 294 294 295 296 298 299 299 298 297 299
313 312 312 312 313 313 313 313 313 315 320 323 322 322 322 320 320 323 325 324 324 325 325 323 319 317 322 327 328 325 326 327 326 325 324 323 321 320 319 318 317 316 314 313 313 314 315 315 314 313 311 310 308 305 303 302 302 301 300 300 299 299 299 299 298 298 297 296 296 295 294 294 294 294 294 294 294 295 296 297 298 299 299 299 299 300
314 312 312 312 313 313 313 313 314 317 321 323 321 321 322 323 324 326 326 325 324 325 326 324 323 323 326 327 326 325 326 326 325 324 324 321 319 318 317 317 316 314 313 312 313 314 316 315 313 312 309 307 305 304 303 302 302 302 301 301 300 299 299 299 299 298 297 295 295 295 294 295 294 294 295 296 296 297 299 299 300 300 301 301 301 301
314 314 315 315 314 314 315 316 319 321 322 322 323 324 325 325 324 324 325 325 325 325 325 325 325 326 327 326 325 325 326 325 323 323 322 319 318 317 316 316 315 314 313 314 314 315 316 315 313 310 307 304 304 304 303 303 302 301 301 300 299 299 300 300 299 297 296 296 297 297 297 297 297 297 298 298 299 300 300 300 301 301 301 301 301 300
316 317 318 317 314 314 317 319 321 322 322 323 324 324 325 324 323 323 324 324 324 325 325 325 326 326 325 324 324 324 324 323 322 322 321 319 317 317 316 315 314 314 314 315 315 315 314 313 311 307 305 304 304 304 303 303 301 300 299 299 300 300 300 299 297 297 298 298 299 299 299 299 299 300 300 301 301 301 301 301 301 300 300 300 300 300
316 318 317 315 314 314 315 317 319 321 323 323 323 323 322 322 322 323 323 324 324 324 324 325 325 324 323 323 323 323 323 322 321 321 319 316 316 315 314 312 312 313 315 315 315 314 313 311 308 305 305 305 304 303 303 302 301 299 299 300 300 300 299 297 298 299 299 299 299 299 300 300 300 300 301 301 301 301 301 301 301 301 301 301 300 300
316 317 316 314 315 315 316 319 321 322 323 323 322 322 322 322 322 322 323 324 323 323 324 325 324 324 323 323 322 323 322 321 319 319 317 315 314 313 311 311 313 313 314 315 314 313 312 309 306 305 305 305 304 303 303 302 301 300 300 300 300 299 299 299 299 300 299 299 299 300 300 299 300 300 301 301 301 300 300 300 300 300 300 300 300 300
318 317 314 314 315 316 317 319 321 320 320 321 321 321 322 323 323 322 323 323 323 323 323 324 323 323 323 322 321 322 322 320 319 317 315 314 314 312 311 312 314 313 313 314 313 311 309 307 306 306 306 305 304 304 302 301 301 300 300 300 300 300 299 299 300 300 300 300 300 299 299 300 301 301 301 302 301 300 298 298 296 295 295 295 296 296
319 317 316 315 316 316 318 320 319 318 320 322 322 321 322 322 323 322 323 323 323 322 322 322 321 322 322 321 321 321 321 320 319 316 315 314 313 312 312 313 313 313 313 312 310 308 307 307 306 306 306 305 304 303 302 301 301 301 301 301 301 300 299 299 300 300 300 300 300 299 300 301 301 301 301 300 299 297 296 295 295 294 293 294 293 293
320 320 320 319 318 318 320 321 322 321 322 323 323 322 321 321 322 322 322 323 322 321 321 321 320 320 321 320 320 320 320 320 318 316 315 313 312 312 313 313 312 312 312 310 308 308 307 307 306 306 305 305 304 303 302 301 301 301 301 301 301 300 299 300 301 301 301 300 300 300 301 301 301 300 299 299 297 296 294 294 294 294 293 293 293 293
Wind_Speed
19 12 13 14 15 18 19 19 19 18 15 14 15 14 16 12 12 16 11 13 19 16 15 16 16 20 13 14 18 17 19 18 19 17 16 22 26 25 21 13 10 10 14 16 16 15 15 15 14 13 11 9 10 12 13 12 11 13 15 16 16 15 16 16 14 14 13 12 12 11 11 12 11 10 11 11 10 9 8 6 5 4 3 2 1 0
18 13 15 18 17 19 20 19 20 21 16 12 13 13 15 12 11 17 11 12 16 13 13 17 15 19 15 15 19 15 14 13 15 17 18 20 20 24 28 17 8 5 8 13 16 17 16 15 14 14 13 12 11 11 11 12 10 11 14 16 16 15 15 15 14 13 13 12 11 11 10 11 11 10 11 10 9 8 7 6 5 4 3 2 2 1
15 14 17 20 18 18 19 19 20 21 17 11 11 10 12 12 11 15 13 13 14 10 11 16 15 13 9 14 16 13 11 10 11 14 20 23 21 23 31 26 16 12 11 13 16 18 18 16 15 15 16 15 13 10 10 12 13 12 12 13 15 16 15 15 14 13 12 12 12 11 11 11 11 11 11 9 9 7 5 5 5 4 4 4 3 3
12 14 19 19 18 19 19 20 21 18 13 10 10 9 10 13 13 11 13 13 13 11 11 15 14 5 12 15 12 10 11 11 11 13 16 21 25 24 24 29 27 25 23 20 20 20 20 19 17 17 18 15 13 11 9 10 13 13 11 11 14 15 14 14 13 13 12 13 13 12 11 10 9 9 8 6 6 6 4 4 4 4 3 3 3 3
13 14 19 19 19 21 18 19 21 15 10 12 13 11 11 14 15 9 11 12 11 13 14 13 12 7 10 13 10 9 10 10 11 14 14 17 21 17 13 24 30 31 28 23 21 20 19 20 18 18 17 14 11 11 11 10 11 12 11 12 13 13 12 12 12 12 12 12 11 12 10 9 8 7 6 4 4 4 5 3 2 2 2 1 0 2
13 16 21 21 19 21 18 16 20 15 9 12 15 14 12 13 15 12 13 14 9 11 15 13 10 9 11 11 8 8 10 10 10 13 14 16 19 14 8 14 20 23 22 19 18 18 18 18 18 17 15 13 11 11 13 12 10 9 9 12 10 9 10 11 11 10 10 9 9 9 9 8 8 7 6 5 5 5 5 4 2 1 2 2 1 0
11 17 21 21 20 21 19 15 20 18 10 10 13 15 14 12 15 14 13 13 9 8 14 14 10 8 11 11 10 9 11 14 11 10 14 17 19 17 12 12 14 17 19 19 18 18 17 17 19 19 17 15 13 13 14 12 11 9 9 10 9 9 9 10 10 9 9 9 9 9 9 8 7 6 5 6 6 5 4 4 2 0 0 2 1 2
13 18 20 22 21 18 17 13 17 19 12 8 12 16 13 12 13 14 13 11 9 8 13 16 13 9 8 13 17 15 14 16 13 10 13 17 19 20 17 14 14 17 19 21 21 19 18 17 19 20 18 16 15 15 14 13 13 13 11 10 10 10 9 10 11 10 10 9 9 9 8 7 6 5 5 6 6 4 3 3 2 1 1 2 2 2
15 18 19 21 18 14 14 14 17 19 15 10 11 16 13 10 11 13 13 10 9 9 10 16 16 10 8 10 18 19 17 16 17 15 14 17 20 21 20 17 15 17 19 21 21 19 19 18 19 19 19 19 18 16 16 16 16 15 13 11 10 11 10 9 10 9 9 9 8 7 6 5 6 5 5 5 4 4 3 2 2 2 3 3 3 2
13 16 17 18 14 12 14 15 17 19 16 11 10 14 14 10 8 8 9 9 10 11 10 14 16 11 8 8 14 15 16 16 16 16 16 18 20 20 21 20 18 18 19 20 21 21 21 20 19 22 22 21 19 19 18 18 17 15 13 12 11 10 9 8 7 7 7 7 6 6 5 5 5 5 5 4 4 4 2 1 2 3 2 2 2 2
11 13 15 15 13 13 15 16 16 18 18 10 8 12 13 10 8 5 7 8 8 11 12 14 16 13 9 8 12 12 13 15 15 16 17 19 20 21 23 23 21 21 21 22 23 23 23 21 22 25 24 23 23 23 21 19 17 15 12 11 10 9 8 6 4 4 4 4 5 6 7 7 7 7 6 5 5 4 3 2 3 3 2 1 1 1
13 13 12 13 17 16 15 16 14 17 20 11 8 11 10 9 8 6 7 8 9 10 11 14 17 16 11 7 11 13 16 18 15 16 18 20 22 22 20 21 23 23 24 25 25 25 25 25 26 25 24 27 27 24 23 20 19 18 13 10 8 7 6 4 2 3 3 2 4 6 8 10 10 9 8 6 5 4 3 3 3 3 3 2 1 1
13 13 13 14 19 19 14 13 13 15 17 12 9 11 10 9 8 8 9 9 9 9 9 15 18 15 11 9 12 16 18 19 17 16 19 20 22 23 21 20 21 24 27 27 26 27 27 26 26 22 22 27 26 23 23 22 20 18 14 10 7 7 7 6 4 3 3 3 4 5 6 8 9 8 7 6 5 4 4 4 4 4 4 4 3 2
10 12 16 17 15 17 16 12 11 13 15 13 11 11 10 9 9 9 10 9 9 8 9 15 16 12 10 9 14 17 16 18 20 19 21 21 21 23 24 23 22 26 29 27 26 26 24 23 23 21 22 24 23 22 22 21 19 15 13 12 9 8 8 7 4 4 5 5 5 6 6 6 6 6 6 5 5 5 4 4 5 5 4 4 4 4
12 10 16 17 12 17 19 14 12 13 14 14 11 11 10 8 8 8 9 9 10 10 10 12 11 11 9 4 9 16 15 19 21 21 22 21 20 22 23 23 24 26 29 27 24 23 22 22 22 21 22 23 23 22 20 19 18 15 13 12 10 9 8 6 5 6 6 6 6 6 6 7 6 6 6 6 5 5 5 5 5 5 5 4 4 5
13 9 14 17 13 18 18 14 15 15 13 12 11 12 11 10 8 6 5 4 4 8 10 9 6 5 3 2 6 13 14 17 20 22 23 21 21 21 21 23 25 26 27 25 23 25 26 24 23 22 22 23 24 21 18 17 16 15 13 12 10 9 8 8 7 6 7 6 6 5 5 7 7 7 7 7 7 6 6 7 6 5 6 5 5 6
11 9 16 18 14 18 19 15 16 14 11 9 11 13 11 12 10 6 4 0 1 7 8 8 7 4 5 3 7 13 14 16 18 19 21 22 23 21 21 24 26 26 26 25 25 29 29 25 23 22 22 22 20 17 16 17 16 14 14 12 11 10 9 8 7 5 6 5 5 6 6 7 8 9 9 9 8 8 8 8 7 7 7 6 7 8
10 8 15 18 14 17 21 18 15 14 12 9 11 13 10 11 11 7 7 5 6 9 7 10 12 9 8 7 9 13 14 16 17 16 17 20 22 23 24 26 26 26 26 25 29 30 26 25 24 21 20 19 17 16 17 17 15 14 14 12 11 11 9 8 7 5 4 4 5 7 7 8 9 10 10 10 9 9 9 8 8 8 8 8 9 10
11 8 12 17 14 16 19 17 12 14 16 12 10 12 10 10 11 9 7 8 9 9 8 12 14 11 10 9 12 15 15 15 17 17 16 18 21 23 25 27 27 26 26 26 30 29 24 24 25 21 20 20 17 17 17 16 16 15 14 13 11 10 9 8 7 5 5 5 6 8 8 9 10 11 11 11 10 10 10 8 9 9 9 10 10 10
11 8 9 14 14 14 15 13 10 12 15 14 10 12 10 8 9 9 7 7 9 8 8 11 12 10 9 11 16 18 17 17 17 17 16 18 22 24 25 28 28 27 28 30 30 29 24 24 25 23 22 21 18 17 17 17 18 17 14 13 11 10 9 8 7 6 6 7 8 9 9 10 10 11 11 10 10 11 10 9 10 11 11 11 10 10
11 8 9 11 14 14 11 11 13 13 13 12 10 12 11 8 8 9 8 8 8 8 7 8 10 8 7 10 16 19 18 17 17 17 16 19 24 25 26 30 29 28 32 33 29 27 25 24 24 23 22 20 18 17 17 18 19 18 15 13 11 10 10 9 8 7 7 9 10 10 10 10 10 10 9 9 11 12 11 10 12 12 12 11 11 11
9 8 9 10 12 13 12 14 16 15 15 13 9 10 12 10 9 9 10 10 8 8 8 7 9 7 5 8 11 15 16 16 18 17 16 20 24 24 27 29 27 27 32 32 27 25 25 24 24 24 22 19 18 18 18 17 17 18 16 13 12 11 10 10 10 9 9 10 11 11 10 10 10 9 10 11 13 13 13 12 13 14 13 12 12 12
8 7 9 10 10 11 12 15 15 15 18 16 11 10 11 11 11 9 9 10 9 9 9 8 7 3 5 8 10 13 14 15 19 18 16 21 25 26 29 29 26 28 30 30 28 26 24 24 24 24 22 20 19 19 18 17 16 17 16 14 14 13 12 12 11 10 10 10 11 11 10 10 10 10 11 13 14 14 14 14 14 14 14 14 13 13
8 7 9 10 9 9 11 14 15 16 16 14 12 13 12 11 12 10 8 8 8 10 9 7 6 3 4 6 7 10 15 16 18 19 18 21 25 27 29 29 29 31 31 30 29 26 24 24 23 23 23 22 21 20 19 17 17 16 15 14 16 16 14 13 12 11 11 11 11 11 11 11 11 11 13 15 15 15 15 15 15 15 14 14 14 14
8 8 10 10 10 10 10 11 14 15 14 11 11 15 16 15 15 12 9 8 8 11 12 9 6 4 4 4 4 8 16 16 16 20 21 22 27 29 30 33 34 34 33 33 31 29 28 26 24 24 24 23 22 20 19 18 17 16 15 15 17 16 14 13 12 11 12 12 11 11 12 12 11 13 15 16 16 16 16 15 16 16 15 15 15 15
8 8 10 10 10 12 12 11 12 13 12 10 12 18 19 17 16 13 9 9 8 10 12 10 6 6 6 8 7 9 14 15 14 18 20 23 27 28 31 35 37 34 33 34 32 30 29 27 26 26 25 24 23 21 20 19 17 16 15 16 17 16 14 13 13 13 13 13 12 12 13 13 14 16 17 16 16 17 17 16 16 16 17 16 16 17
7 9 12 11 10 10 10 10 11 12 12 12 15 19 19 18 18 13 9 9 9 8 9 10 7 9 9 11 11 9 11 13 13 15 20 23 24 27 30 34 34 33 34 34 32 29 28 29 29 28 26 25 23 21 20 19 18 17 16 17 17 16 15 14 14 14 14 14 14 13 13 14 17 18 17 17 18 17 17 17 16 17 17 17 17 17
5 10 14 14 14 13 11 10 11 13 15 15 16 18 19 20 20 15 11 11 10 8 9 10 10 10 9 12 13 12 12 14 14 15 20 23 23 27 31 32 32 32 33 33 30 29 30 31 31 29 27 25 24 22 20 18 17 16 16 17 17 16 16 16 16 16 15 15 15 14 15 17 18 17 18 18 18 18 18 18 18 18 18 18 18 16
5 9 14 15 15 14 12 12 13 14 16 17 17 17 18 20 21 17 14 13 12 9 8 10 13 12 11 12 14 13 10 12 15 17 20 23 24 27 31 31 30 30 30 29 29 31 33 32 31 30 28 25 24 23 20 18 17 17 17 17 17 16 16 16 17 17 16 16 16 17 18 18 18 18 18 18 18 19 19 19 19 19 18 18 18 17
6 7 13 15 13 13 15 14 14 13 14 17 18 18 18 18 20 18 15 14 15 13 10 9 10 12 11 11 12 12 10 13 16 18 20 22 24 27 29 29 28 28 29 30 31 32 33 32 31 30 27 25 25 23 20 19 17 17 18 17 17 17 17 16 17 18 18 18 18 19 19 18 18 18 18 18 19 19 19 19 20 19 18 18 18 18
7 6 13 13 10 12 14 12 11 12 13 16 17 19 19 18 19 18 15 14 14 14 13 10 8 8 9 10 12 13 16 16 16 18 20 22 25 27 27 27 27 28 30 31 32 33 34 32 31 28 26 25 24 22 20 20 18 18 19 18 17 18 17 16 18 19 19 19 18 18 18 18 18 18 18 19 19 18 19 19 20 19 19 18 18 18
7 6 11 11 9 10 10 8 8 9 13 16 17 19 20 19 17 15 14 14 13 13 14 13 9 6 7 10 13 15 18 17 16 19 21 23 26 29 29 29 30 30 31 33 33 34 34 33 31 30 28 26 24 22 21 20 20 19 19 19 18 18 18 18 19 20 20 19 18 17 17 17 17 17 18 18 18 18 18 19 19 19 19 18 18 18
8 6 9 11 10 9 11 11 10 9 12 13 13 16 18 18 16 14 14 15 15 13 12 11 8 5 7 10 13 14 16 17 17 20 22 23 26 28 29 31 31 29 32 35 35 35 35 35 33 31 29 27 25 23 21 20 20 19 19 19 19 19 19 19 19 20 20 18 17 17 16 16 16 16 17 17 17 17 18 18 19 19 19 19 18 18
10 7 8 9 8 8 12 12 10 11 11 6 4 8 13 15 17 16 15 15 15 13 10 10 9 6 7 10 12 13 15 17 19 20 20 22 26 27 28 30 29 30 35 38 38 37 37 36 33 30 27 26 24 22 21 20 20 20 20 19 19 19 19 19 19 19 19 18 18 18 18 17 16 16 16 17 17 18 19 19 20 20 19 19 18 17
11 8 7 8 7 7 10 10 10 11 7 2 2 2 5 9 12 14 16 17 17 16 14 13 13 11 9 9 12 13 14 15 18 18 18 21 24 27 29 29 29 33 38 39 39 39 37 34 32 29 27 26 25 23 22 21 21 21 20 20 20 20 19 20 20 20 20 19 18 18 18 17 16 16 16 17 18 19 19 20 21 20 19 18 16 15
10 8 7 7 7 6 8 9 9 5 3 4 3 3 2 5 8 9 12 15 17 18 16 15 15 13 11 10 12 13 13 14 15 15 17 20 23 27 29 29 32 37 37 37 40 39 35 33 31 30 30 28 25 23 23 23 22 22 21 20 20 20 19 19 20 20 20 18 17 16 16 16 16 16 15 17 19 19 20 20 21 20 19 18 16 15
11 8 7 7 8 7 7 9 6 1 2 6 6 5 5 7 9 9 9 10 13 15 15 15 15 13 12 13 13 13 15 15 12 12 16 20 22 26 28 29 34 37 35 37 41 37 33 32 30 30 32 30 26 24 24 24 23 22 21 21 20 21 20 20 20 19 19 18 17 17 16 16 17 16 16 18 20 20 20 20 20 19 18 17 15 14
12 10 8 7 7 6 6 8 8 5 6 7 8 9 8 7 8 9 8 9 12 14 15 15 15 14 14 13 14 16 16 12 7 10 17 21 23 26 27 30 35 37 37 40 42 38 36 36 32 29 30 30 26 25 24 23 23 22 22 21 21 21 21 21 21 22 21 21 22 21 19 18 19 18 17 18 19 19 20 20 20 19 18 16 14 12
13 11 8 7 6 6 6 7 8 7 4 1 4 9 10 8 8 8 8 9 11 17 20 18 15 16 17 14 17 17 13 9 6 11 20 24 26 28 29 32 34 36 40 45 44 41 40 38 33 29 29 29 27 25 24 24 23 22 22 22 22 22 23 23 24 24 24 24 25 24 22 21 20 19 17 18 19 20 20 20 19 18 16 14 13 12
12 10 9 8 8 8 8 6 6 5 2 5 6 7 9 10 9 8 8 7 7 17 25 23 20 21 20 18 19 15 11 7 5 14 25 28 28 28 30 33 32 33 40 44 42 41 40 36 33 31 31 30 27 25 24 23 23 24 24 24 24 24 24 24 24 24 24 23 23 23 22 22 20 19 17 18 20 20 21 20 19 17 13 12 11 11
10 8 8 10 9 8 8 8 6 3 4 6 7 8 10 10 8 7 6 3 5 8 21 24 24 24 22 22 19 14 11 6 5 21 32 29 28 31 32 34 33 35 39 39 36 37 37 34 33 34 32 30 27 25 24 24 25 26 26 25 24 24 24 23 23 23 23 22 22 22 22 21 20 19 19 20 21 21 21 20 18 16 14 13 14 14
10 8 9 9 9 9 8 7 7 4 3 5 8 11 10 8 5 3 2 3 7 3 12 19 23 23 23 23 21 15 10 7 16 30 34 30 33 38 37 37 39 40 39 37 36 37 37 36 35 35 32 29 27 26 25 25 26 27 25 25 25 24 24 24 22 23 23 22 22 22 22 22 22 21 21 22 22 22 21 20 17 16 15 16 16 16
9 8 9 9 8 7 7 8 8 4 3 8 10 9 8 5 0 2 0 1 2 2 7 13 19 21 22 21 18 12 10 16 24 31 32 32 36 38 39 42 45 42 37 35 37 39 39 38 37 34 30 28 25 24 24 25 26 26 25 25 25 24 24 24 23 23 24 23 23 23 24 24 23 23 23 22 22 21 20 19 17 15 15 14 14 13
8 9 7 7 8 8 7 8 4 1 6 11 8 3 2 2 5 5 2 2 2 1 5 8 11 16 18 17 15 13 15 22 25 27 32 34 34 34 38 44 46 42 37 37 39 40 39 38 36 32 29 26 24 24 24 25 26 26 25 25 25 25 25 24 23 24 24 25 25 24 24 24 24 24 23 21 19 18 17 16 14 12 11 10 9 10
7 7 4 2 6 7 3 2 2 3 8 10 6 4 3 5 4 5 5 5 3 2 3 5 8 12 15 15 14 14 18 24 25 28 33 34 34 37 40 42 43 43 40 39 40 40 39 38 36 32 28 26 24 24 24 24 27 28 27 27 27 26 25 24 24 25 25 25 24 23 23 23 22 21 19 17 15 14 13 12 11 10 10 10 9 9
7 7 4 1 5 6 3 6 3 2 7 9 8 6 4 3 2 1 3 3 2 2 2 4 8 12 14 16 15 15 20 26 27 30 33 34 37 40 39 38 40 41 41 41 42 41 39 37 35 31 28 26 25 24 24 24 26 28 28 28 27 26 26 26 27 26 24 22 21 21 21 20 18 17 15 14 12 12 11 10 10 10 9 9 9 9
8 9 8 5 6 7 5 5 4 3 5 6 7 6 4 2 2 3 2 1 2 2 2 4 8 12 14 15 15 17 24 28 28 31 34 34 36 37 33 32 36 40 43 46 44 41 39 37 34 31 29 27 25 24 25 25 26 28 28 28 27 26 27 28 27 25 23 21 21 20 19 18 17 15 14 13 11 11 10 9 10 10 9 9 8 8
6 8 8 8 7 7 4 3 4 4 4 5 5 4 4 4 3 2 4 3 3 3 3 4 8 13 15 16 17 20 25 28 30 32 32 30 31 32 31 34 41 45 48 47 44 41 39 36 33 31 29 27 26 25 26 26 26 27 28 27 27 27 27 27 25 23 22 21 20 18 18 18 17 15 13 12 11 11 11 10 9 9 10 9 9 8
3 6 6 7 8 7 5 3 4 5 6 7 7 5 3 3 4 3 4 5 5 6 7 7 9 13 16 18 19 21 24 27 30 33 32 30 30 31 35 42 47 49 49 47 43 40 38 34 33 31 29 27 26 26 27 27 27 27 27 26 26 27 27 26 24 23 22 20 18 18 18 17 15 13 13 12 12 13 13 12 10 10 10 10 9 9
4 3 3 6 6 4 2 1 1 3 2 3 5 6 5 4 4 4 4 6 7 7 8 9 11 13 16 18 20 22 24 27 30 31 31 30 30 33 41 50 51 50 49 45 40 36 34 32 32 31 29 27 27 27 27 28 28 27 26 25 26 26 27 27 24 22 20 19 18 19 17 14 13 13 12 12 12 14 13 12 10 10 10 10 9 8
1 1 2 2 3 1 3 5 5 3 2 5 5 5 5 4 4 5 5 6 7 7 7 9 12 14 16 19 20 21 24 28 30 30 29 29 32 39 47 52 53 50 47 42 37 34 33 32 32 30 28 28 28 27 27 28 28 27 26 25 25 26 26 25 23 21 19 18 18 18 15 14 14 14 13 13 13 13 12 11 10 10 9 9 8 7
Wind_Direction
190 195 204 206 206 202 205 209 215 226 222 216 209 204 219 216 199 212 195 171 190 198 207 206 209 225 210 130 116 125 139 152 160 157 155 151 145 142 139 154 182 155 145 154 163 167 160 159 159 148 145 158 163 160 166 173 176 182 180 177 181 179 173 171 172 170 164 162 153 148 153 150 150 148 134 132 133 126 128 128 118 117 109 105 123 277
193 206 208 203 207 203 204 210 213 224 231 232 223 202 212 220 200 207 188 158 190 202 207 208 210 224 213 138 127 137 142 146 153 158 161 154 148 144 138 149 190 151 147 162 168 170 156 157 161 149 161 188 183 165 172 185 187 191 185 178 183 186 178 171 172 169 161 158 149 147 155 148 144 136 125 130 134 131 135 134 130 131 131 132 136 191
199 212 207 200 205 206 205 208 212 220 225 231 231 207 205 214 207 201 177 163 194 208 203 203 213 224 186 129 131 151 153 142 152 163 160 154 158 160 147 152 181 182 174 186 179 167 154 156 163 157 171 195 198 180 182 191 189 196 194 181 184 188 181 172 170 165 158 158 154 154 157 146 140 133 127 130 130 132 135 146 164 167 171 179 186 214
200 207 204 198 201 207 205 203 210 218 217 222 224 209 206 205 209 200 166 169 193 207 213 200 201 179 105 116 139 154 149 147 160 163 161 162 169 180 162 154 178 190 188 192 183 165 153 154 162 163 170 190 206 201 188 180 183 191 188 181 185 186 181 169 162 159 163 171 165 157 154 144 133 129 129 131 135 142 136 154 181 167 170 194 210 237
203 197 198 199 199 206 205 197 205 211 204 218 220 215 214 203 210 204 159 170 190 206 224 209 194 177 122 129 148 152 148 152 163 160 165 175 178 193 178 159 176 189 188 182 170 160 151 150 161 167 171 182 195 196 186 171 176 182 181 190 193 183 175 168 162 164 171 174 162 148 145 138 125 121 119 111 127 137 122 128 170 136 105 69 232 260
206 191 191 198 197 201 204 197 202 205 198 211 219 225 230 211 209 200 167 176 191 200 217 217 210 196 160 143 149 162 165 164 164 161 167 179 181 190 183 161 171 179 176 167 156 151 142 144 158 163 167 174 174 176 175 169 171 182 195 202 192 165 164 167 163 168 174 165 150 141 135 130 124 124 123 120 132 137 135 144 141 111 89 56 34 323
207 192 187 197 196 194 203 204 199 200 205 207 207 220 239 238 218 197 176 185 199 197 198 209 226 206 173 168 174 183 182 171 164 166 172 178 183 185 178 165 165 168 164 158 153 146 139 144 155 159 164 169 167 164 165 165 165 174 195 196 176 152 157 168 164 167 170 156 144 138 130 128 127 132 147 150 153 153 149 145 126 134 120 50 27 42
202 193 187 196 194 191 201 203 192 194 211 213 191 201 227 253 229 192 183 198 207 202 191 200 218 229 208 180 170 184 194 175 163 177 182 181 187 187 182 174 166 165 163 157 151 145 140 141 151 158 161 163 160 152 151 152 149 150 162 166 157 149 150 162 166 163 158 145 139 138 130 126 130 145 156 146 146 142 127 124 107 71 46 45 20 27
198 195 186 189 188 191 198 197 189 190 214 224 186 188 205 240 233 194 193 209 210 210 200 197 207 230 237 176 161 180 196 181 172 184 191 188 191 186 180 181 173 167 165 158 151 144 141 143 150 151 150 154 154 150 149 144 140 140 144 148 156 162 154 149 153 150 144 140 140 140 128 123 131 140 135 124 127 119 117 132 97 75 58 51 31 17
192 190 181 182 186 193 196 198 194 190 211 221 179 181 195 215 229 209 211 215 209 220 215 195 196 220 233 171 163 183 192 188 182 184 190 190 188 183 180 182 176 164 159 155 149 146 148 150 152 149 148 150 150 153 153 145 144 147 146 149 155 166 163 150 150 145 135 130 131 130 127 130 136 135 129 130 145 147 155 152 81 76 69 58 37 13
165 168 178 190 198 199 196 200 196 191 206 206 162 181 195 203 213 217 229 227 219 226 219 200 197 214 225 175 170 188 191 192 189 181 186 190 186 183 183 179 171 161 152 150 149 149 152 153 154 154 151 149 146 150 151 144 150 156 158 161 155 160 168 160 166 165 144 124 127 145 154 152 147 145 145 153 164 163 156 118 87 88 89 65 353 355
162 171 187 200 205 204 197 196 189 191 204 197 166 188 191 190 202 207 217 228 233 225 208 205 208 210 219 198 179 188 190 191 191 182 181 188 186 181 179 176 169 159 148 148 150 148 150 152 155 154 149 147 147 148 145 141 148 154 158 168 167 166 161 146 180 188 163 144 139 153 166 167 165 160 160 167 161 137 114 104 96 98 87 58 22 28
179 191 193 195 205 205 195 188 181 189 203 195 180 194 187 179 193 200 203 211 227 230 204 204 214 215 220 216 185 182 188 187 188 185 180 184 182 173 173 176 168 155 148 148 147 146 151 154 155 152 145 145 144 144 144 143 147 152 155 161 158 149 146 156 185 166 112 122 129 129 145 160 163 155 149 150 134 103 96 98 91 88 78 68 54 36
179 194 193 192 199 200 197 190 179 185 198 192 185 196 193 184 189 194 201 206 212 229 218 205 212 215 216 214 186 181 189 189 185 183 180 180 179 173 174 173 163 154 149 148 147 147 150 152 151 151 145 142 141 144 148 147 148 150 150 150 141 138 149 163 169 118 102 116 116 111 113 115 124 128 124 119 109 98 101 102 91 83 77 76 63 44
184 189 190 191 185 190 201 200 181 183 196 194 193 207 210 200 195 193 204 211 205 212 214 212 220 213 207 217 176 172 180 185 183 179 177 180 182 176 171 163 155 152 148 147 147 144 147 151 154 153 146 143 146 147 148 149 148 144 140 142 141 138 135 130 127 115 108 112 109 108 114 111 109 119 122 122 124 119 109 102 95 91 91 83 66 55
193 190 179 187 185 185 197 199 186 188 197 192 197 215 220 212 199 190 210 233 229 218 205 207 230 206 166 55 138 160 173 179 180 180 177 181 183 172 159 155 152 148 144 143 143 146 153 157 155 153 149 148 151 149 147 146 143 139 138 139 139 134 124 125 133 121 105 106 109 116 130 132 127 123 123 130 136 127 111 106 99 90 88 78 60 50
197 183 167 178 185 185 191 197 194 198 196 183 199 215 216 218 214 196 199 291 291 234 206 194 206 159 121 131 160 171 178 175 179 182 175 175 175 156 144 152 152 144 143 145 148 153 157 154 149 151 151 150 151 148 142 138 134 133 134 133 131 127 122 123 126 119 112 114 125 136 141 138 129 123 123 127 125 114 108 106 97 86 78 65 52 45
195 166 158 174 183 181 189 201 204 209 207 186 197 210 207 218 227 216 205 195 203 223 205 190 200 190 180 187 178 181 180 175 180 175 163 166 162 143 144 157 153 143 144 148 152 155 153 149 147 151 150 146 147 145 136 132 130 129 129 129 127 123 118 115 113 120 131 132 140 141 138 133 129 126 122 119 112 106 104 102 93 88 79 65 55 51
200 172 160 183 186 174 187 203 204 206 217 216 203 203 205 210 213 211 212 202 199 214 210 197 202 209 208 188 174 184 185 179 177 167 163 170 160 148 154 159 150 143 146 150 152 153 153 153 152 149 147 143 141 140 135 132 131 130 128 126 121 117 113 108 112 128 140 139 138 133 126 123 123 121 116 112 110 106 104 101 95 88 77 69 64 60
203 181 163 189 187 171 182 202 199 190 208 226 216 202 210 217 209 207 211 208 202 208 215 209 207 216 216 184 170 179 184 182 179 171 171 176 166 158 159 157 148 145 150 152 152 154 155 156 153 148 145 142 139 140 137 135 132 128 125 121 115 112 108 107 119 135 135 128 124 120 113 107 107 109 106 104 106 104 100 95 91 85 79 76 74 69
198 178 164 185 183 179 184 197 200 187 189 210 212 200 202 206 211 214 209 208 212 210 207 209 214 218 206 176 170 176 181 183 183 178 175 174 168 159 156 155 149 147 152 152 152 155 155 154 151 147 143 139 139 142 139 135 131 126 121 116 111 108 107 110 117 118 118 120 120 116 108 101 99 99 96 96 100 101 99 93 89 88 86 84 81 77
194 177 171 180 183 190 190 190 198 195 190 199 206 204 204 199 203 212 207 206 215 218 209 205 219 222 179 157 169 178 179 182 184 183 177 173 166 155 153 155 150 149 153 151 151 156 155 152 149 146 143 141 142 143 138 134 131 125 119 115 112 110 109 112 113 111 115 120 120 114 106 102 100 95 95 103 105 102 100 98 95 94 91 87 85 82
184 176 176 182 186 194 185 182 199 206 200 202 205 209 212 204 202 209 205 202 212 222 219 213 217 209 129 148 171 176 177 183 186 183 177 168 160 153 154 156 151 149 151 150 152 156 155 151 149 145 144 143 143 141 136 133 129 121 117 120 121 118 116 116 115 115 117 118 116 112 107 104 101 96 101 109 111 107 103 101 99 96 93 89 85 82
186 181 179 180 180 190 185 182 200 213 209 204 205 211 217 209 204 217 222 209 214 221 218 215 209 171 121 150 171 175 179 185 184 180 175 159 150 151 154 154 153 151 150 151 151 153 152 150 149 146 145 145 144 141 137 132 125 121 123 127 125 120 120 122 120 118 119 118 114 111 109 106 102 103 110 114 112 108 105 102 100 98 96 92 88 84
189 185 177 180 176 178 185 185 195 210 212 205 204 211 219 217 205 215 233 224 222 223 219 221 210 162 143 161 178 189 186 184 179 176 168 149 144 150 152 153 155 152 151 152 151 151 153 152 150 148 147 147 144 140 136 132 127 127 131 129 123 121 123 124 123 122 120 118 115 112 109 106 106 113 117 117 113 108 106 104 102 101 97 93 90 87
187 198 184 185 182 177 186 191 187 197 205 203 205 208 215 219 210 208 221 221 220 218 218 226 208 137 139 167 182 196 186 173 165 161 150 139 144 151 153 154 155 153 153 154 152 151 153 153 151 149 149 148 144 140 137 134 132 133 135 130 123 123 128 128 126 124 120 116 115 112 110 110 116 121 120 117 114 111 109 107 105 103 98 93 91 87
196 217 199 193 196 191 192 188 178 186 198 202 205 205 206 214 215 210 210 218 222 214 216 224 189 140 152 174 180 191 180 159 150 143 135 137 146 153 155 156 155 155 156 155 153 152 154 155 152 148 148 146 142 139 136 135 136 137 139 134 124 126 135 133 127 124 121 119 117 114 116 121 124 124 121 118 115 113 110 108 106 104 101 98 93 86
207 220 204 202 207 203 192 180 182 193 202 205 205 205 204 208 215 218 213 215 221 220 221 212 175 151 169 181 180 190 183 161 153 147 141 143 149 152 155 155 152 152 156 155 155 155 155 155 151 147 147 144 140 139 137 138 140 138 136 132 127 132 140 136 128 125 124 124 121 120 125 127 126 124 121 119 117 114 112 108 105 103 102 100 96 92
224 211 200 206 211 209 198 190 196 201 203 207 207 208 208 206 211 218 219 218 216 217 227 211 185 176 180 180 185 194 180 151 148 148 144 144 147 152 155 155 152 153 156 156 157 157 156 153 150 148 147 143 140 140 139 138 139 135 132 131 133 138 141 137 132 129 129 129 128 130 133 130 126 124 121 119 117 115 113 110 106 103 98 97 96 94
236 197 192 207 213 212 209 202 197 198 205 209 208 210 211 209 211 213 216 221 219 219 233 237 218 202 182 167 181 180 145 132 140 142 143 144 146 152 157 158 156 157 157 157 158 159 156 151 149 149 146 143 143 142 140 139 140 138 134 134 138 142 143 140 137 134 134 135 133 134 134 129 126 125 122 120 118 114 112 110 107 103 99 98 97 94
227 190 187 203 209 207 215 215 195 196 214 215 210 211 211 211 213 209 208 216 219 221 229 242 249 222 174 151 163 156 135 140 154 152 152 155 155 156 160 162 163 160 160 159 158 156 154 150 147 144 139 140 142 142 141 141 143 142 139 141 144 144 145 143 138 136 136 134 133 133 131 129 127 125 123 120 117 114 112 109 106 104 102 100 97 94
218 200 185 196 206 195 205 225 211 209 225 224 217 213 209 211 214 210 207 210 212 214 219 226 231 214 179 163 161 153 142 150 166 168 166 168 167 165 165 166 165 163 162 159 155 153 152 149 144 139 138 142 142 142 145 146 146 145 143 146 148 147 147 145 139 138 137 135 134 132 130 128 126 124 123 120 117 114 112 109 107 105 102 99 96 94
203 201 186 195 209 193 188 209 216 217 226 226 222 216 210 210 211 210 211 209 208 211 214 219 216 195 182 166 149 151 157 162 174 180 178 177 174 173 172 169 165 161 159 157 154 153 152 148 145 144 146 148 146 146 150 148 146 147 146 147 149 147 145 143 139 137 136 134 133 131 129 128 126 126 125 123 121 119 116 113 110 106 102 99 94 91
191 197 192 190 208 199 184 195 210 218 221 220 227 229 224 218 211 210 213 207 205 211 216 220 212 186 179 165 149 162 179 175 176 180 180 178 176 176 175 171 166 159 156 156 156 154 152 149 148 147 147 148 147 147 150 148 146 148 148 146 145 143 141 139 137 136 135 135 136 135 133 131 129 128 126 126 125 123 120 117 112 107 102 98 93 88
185 190 187 183 203 195 174 185 207 217 215 132 82 239 248 240 226 220 220 213 207 211 216 222 216 196 182 172 165 179 186 173 167 171 176 179 178 176 173 169 164 159 155 155 155 153 152 150 146 144 146 149 147 146 148 149 147 146 145 143 141 140 139 139 138 138 137 135 135 135 134 133 132 131 130 130 128 125 122 119 113 108 103 98 94 90
188 190 184 188 204 182 169 195 211 210 168 132 141 140 155 227 228 227 230 222 214 213 210 215 221 210 188 177 178 184 180 166 163 168 175 178 178 177 173 166 163 160 157 156 155 152 150 148 146 147 149 148 146 148 150 149 148 145 143 142 140 138 138 139 138 138 136 132 131 131 132 134 134 132 132 133 130 127 124 119 113 109 104 100 97 93
190 197 188 194 208 194 185 202 212 228 197 193 193 178 182 206 207 210 228 228 224 225 214 208 215 213 198 187 180 170 163 163 165 166 172 176 178 177 173 167 166 165 159 157 157 154 152 151 151 153 153 150 148 151 151 146 146 145 142 141 141 139 138 136 135 134 132 131 133 135 137 139 137 134 134 135 132 128 124 119 113 108 104 102 99 93
191 203 201 195 207 215 212 210 212 226 231 218 205 190 190 207 202 201 222 227 220 223 222 216 210 210 210 193 165 155 160 173 179 167 171 177 177 173 168 164 167 167 162 159 159 159 160 159 155 152 154 154 151 152 151 146 144 144 142 142 142 139 139 139 140 142 143 144 146 145 144 143 139 135 136 136 133 129 124 119 113 110 108 105 101 95
194 202 209 201 203 216 224 220 215 219 223 163 169 174 175 183 185 190 218 231 213 205 213 217 210 215 221 193 162 161 172 188 190 168 171 177 175 169 162 160 164 167 165 163 163 163 164 163 158 152 153 155 154 154 155 150 145 143 141 140 142 144 148 152 153 155 154 152 151 149 146 143 140 138 140 138 134 129 124 118 113 109 105 102 98 96
201 204 211 210 207 209 217 223 225 222 140 102 122 151 161 166 170 185 209 233 219 199 202 207 209 216 215 186 168 176 190 207 206 167 166 172 173 167 161 160 162 162 162 162 163 163 163 162 159 155 154 158 159 157 153 148 145 146 146 147 152 155 158 159 157 154 151 149 147 145 143 143 142 142 142 139 134 129 124 120 116 111 108 106 105 104
201 206 212 216 213 205 211 227 232 206 123 129 150 150 149 159 177 199 208 306 328 208 197 201 208 212 203 183 177 189 201 222 175 153 158 165 166 161 161 165 165 161 159 159 159 159 158 156 157 158 159 162 163 156 150 151 154 156 156 156 157 156 154 151 149 148 146 144 143 143 143 144 144 144 143 139 133 127 121 117 113 112 115 117 115 110
193 200 206 215 220 211 208 224 233 218 140 143 150 144 153 176 192 199 201 347 339 265 199 202 208 205 195 185 185 193 196 165 138 144 153 161 161 159 163 168 167 162 161 162 164 164 162 159 160 163 163 165 167 163 161 163 163 159 155 151 150 148 146 145 145 145 143 142 142 144 144 144 143 141 138 134 129 124 119 116 112 111 113 112 109 104
186 193 201 206 213 215 208 213 228 234 169 167 159 151 179 205 102 31 223 57 353 274 215 214 210 199 190 184 183 183 161 140 141 147 152 156 158 160 164 167 165 161 159 161 164 166 166 164 164 167 166 165 167 166 163 161 157 151 146 144 144 144 145 145 144 143 142 143 145 145 145 143 141 138 134 130 125 121 117 114 111 109 108 104 98 95
191 197 209 203 201 212 213 210 223 101 149 170 167 143 174 134 65 31 18 63 51 163 204 215 204 185 178 176 177 170 148 142 147 151 151 150 152 157 162 164 165 163 161 162 163 165 167 166 165 164 162 159 157 155 154 153 149 144 142 143 144 144 143 142 142 143 144 145 143 142 141 140 138 133 128 123 119 115 112 110 108 106 105 102 96 94
202 211 236 206 209 225 208 134 68 95 146 152 130 91 105 112 80 32 33 49 50 87 165 202 186 168 167 168 170 166 151 147 152 153 151 152 154 156 158 161 165 167 166 165 164 166 167 168 165 161 156 152 150 149 150 152 150 147 145 145 146 144 142 141 143 144 142 140 138 138 137 135 131 127 121 117 115 112 110 110 110 108 108 105 99 96
199 226 266 246 225 236 171 118 96 113 140 136 125 120 117 118 156 291 14 34 55 86 146 196 177 172 176 176 176 170 154 149 152 153 153 155 157 157 157 160 166 170 169 166 164 165 167 167 163 156 149 147 148 148 148 151 153 150 148 146 145 145 145 146 144 141 138 137 137 136 135 132 129 125 120 117 116 115 114 113 111 106 101 98 94 92
193 215 237 229 219 232 213 178 173 158 144 144 144 145 141 134 179 227 246 259 101 126 173 177 169 177 182 177 175 164 149 147 151 152 150 152 156 157 157 160 165 168 168 165 164 165 167 164 157 151 148 148 149 149 148 149 151 150 148 146 146 147 147 146 142 139 139 140 138 136 135 133 129 125 123 121 118 116 114 113 113 109 104 101 96 89
193 194 217 235 226 228 234 183 152 153 163 172 171 173 184 185 175 192 210 196 149 145 149 145 161 173 170 164 166 159 149 149 155 156 155 156 158 158 160 163 167 167 165 164 165 166 165 160 154 151 150 149 149 149 148 148 149 148 147 146 147 148 146 144 142 141 141 140 138 138 138 133 127 126 126 123 120 117 114 113 120 128 128 124 122 116
215 185 199 228 227 221 219 180 164 184 189 184 188 186 169 155 153 159 181 179 155 139 132 130 151 165 160 157 164 166 159 156 157 157 159 161 160 160 164 167 167 165 162 163 165 164 161 156 153 152 151 150 150 149 147 148 148 148 146 146 148 148 146 145 143 142 142 141 140 141 140 134 131 133 132 129 133 138 132 124 124 130 128 123 124 125
231 244 229 232 228 217 201 178 242 252 208 149 164 175 163 152 152 149 161 168 155 142 139 141 151 162 159 156 164 170 166 160 157 155 158 161 159 161 166 167 164 162 162 162 160 157 155 154 153 152 151 150 150 149 148 148 148 148 148 148 149 150 149 146 144 143 144 144 144 144 142 139 138 139 136 133 141 146 139 127 124 125 120 114 112 112
157 299 328 266 218 155 44 25 6 343 50 77 94 136 149 157 167 158 157 161 155 153 158 155 157 164 162 160 166 169 164 161 159 157 159 163 162 162 166 165 162 160 161 158 154 153 154 154 153 152 150 150 150 149 149 149 149 150 150 150 151 152 150 147 146 146 146 147 148 147 145 144 143 140 135 132 133 135 131 124 121 118 113 110 106 101